#timestamp,LO_Frequency,Hit,StdDev 
1623862815.8,286046997.1,N
1623862835.6,286046997.2,N
1623862855.4,286046995.4,Y
1623862875.3,286046996.9,P
1623862895.1,286046997.7,N
1623862915.9,286046997.6,N
1623862935.7,286046997.3,Y
1623862955.5,286046998.3,P
1623862975.4,286046999.1,P
1623862995.2,286046998.0,P
1623863015.0,286046997.0,Y
1623863016.0,286046997.0,P
1623863035.8,286047001.2,N
1623863055.6,286047002.8,N
1623863075.5,286047002.4,N
1623863095.3,286047000.6,N
1623863115.1,286047000.5,N
1623863135.9,286047002.5,N
1623863155.7,286046999.8,N
1623863175.5,286047000.3,N
1623863195.4,286047001.1,N
1623863215.2,286046998.6,N
1623863235.1,286047001.1,N
1623863236.0,286047001.1,N
1623863255.8,286046998.4,N
1623863275.6,286047000.9,N
1623863295.5,286046999.7,N
1623863315.3,286047002.7,N
1623863335.1,286047002.3,N
1623863355.9,286047001.9,N
1623863375.7,286047004.3,N
1623863395.6,286047003.9,N
1623863415.4,286047001.5,N
1623863435.2,286047001.3,N
1623863455.1,286047004.4,N
1623863456.0,286047004.4,N
1623863475.8,286047004.1,N
1623863495.6,286047003.7,N
1623863515.5,286047003.5,N
1623863535.3,286047003.1,N
1623863555.2,286047003.7,N
1623863575.9,286047004.3,N
1623863595.7,286047004.3,N
1623863615.6,286047004.3,N
1623863635.4,286047001.8,N
1623863655.2,286047002.1,N
1623863675.1,286047004.4,N
1623863676.0,286047004.4,N
1623863695.8,286047003.9,N
1623863715.7,286047003.8,N
1623863735.5,286047004.2,N
1623863755.4,286047003.7,N
1623863775.2,286047004.1,N
1623863795.0,286047003.5,N
1623863795.9,286047003.5,N
1623863815.8,286047003.4,N
1623863835.6,286047003.7,Y
1623863855.4,286047000.4,P
1623863875.3,286047000.1,N
1623863895.1,286047000.3,N
1623863915.9,286047000.4,N
1623863935.7,286047000.5,N
1623863955.5,286047000.3,N
1623863975.4,286047000.4,N
1623863995.2,286047002.4,N
1623864015.1,286047002.8,N
1623864016.0,286047002.8,N
1623864035.8,286046999.9,N
1623864055.6,286047002.5,N
1623864075.5,286047000.2,N
1623864095.3,286047002.3,N
1623864115.1,286046999.7,N
1623864135.9,286046999.7,N
1623864155.7,286047000.3,N
1623864175.6,286047000.1,N
1623864195.4,286047000.1,N
1623864215.2,286047000.2,N
1623864235.1,286047000.6,N
1623864236.0,286047000.6,N
1623864255.8,286047000.2,N
1623864275.7,286047002.1,N
1623864295.5,286047002.2,N
1623864315.3,286047001.8,N
1623864335.2,286047001.5,N
1623864355.0,286047002.5,N
1623864355.9,286047002.5,N
1623864375.7,286047001.5,N
1623864395.6,286047000.9,N
1623864415.4,286047001.1,N
1623864435.3,286047000.3,N
1623864455.1,286047000.0,N
1623864475.8,286047002.5,N
1623864495.7,286047002.3,N
1623864515.5,286047002.7,N
1623864535.4,286047002.5,N
1623864555.2,286047002.6,N
1623864575.0,286047002.2,N
1623864575.9,286047002.2,N
1623864595.8,286047002.2,N
1623864615.6,286047001.6,N
1623864635.5,286047002.0,N
1623864655.3,286047001.6,N
1623864675.1,286047002.2,N
1623864695.9,286047001.6,N
1623864715.7,286047004.4,Y
1623864735.5,286047002.7,P
1623864755.4,286047001.4,N
1623864775.2,286047002.5,P
1623864795.1,286047002.2,Y
1623864796.0,286047002.2,P
1623864815.8,286047001.0,P
1623864835.6,286046998.4,P
1623864855.5,286047001.2,N
1623864875.3,286047000.7,N
1623864895.2,286047000.9,N
1623864915.9,286047001.0,N
1623864935.7,286046998.6,N
1623864955.6,286047000.6,N
1623864975.4,286047001.1,N
1623864995.2,286047000.8,N
1623865015.1,286046998.8,N
1623865016.0,286046998.8,N
1623865035.8,286046998.5,N
1623865055.7,286047000.8,N
1623865075.5,286047000.2,N
1623865095.3,286047002.7,N
1623865115.2,286047000.4,N
1623865135.9,286047001.2,N
1623865155.7,286046998.1,N
1623865175.6,286046998.6,N
1623865195.4,286047000.7,N
1623865215.3,286047000.3,N
1623865235.1,286046999.7,N
1623865236.0,286046999.7,N
1623865255.8,286047000.1,N
1623865275.7,286047000.6,N
1623865295.5,286046998.1,N
1623865315.3,286047000.5,N
1623865335.2,286047000.6,N
1623865355.0,286046998.7,N
1623865355.9,286046998.7,N
1623865375.8,286046998.8,N
1623865395.6,286046998.3,N
1623865415.4,286047001.1,N
1623865435.3,286047000.3,N
1623865455.1,286046999.8,N
1623865475.9,286047002.6,N
1623865495.7,286047000.3,N
1623865515.5,286046999.8,N
1623865535.4,286046999.9,N
1623865555.2,286047000.4,N
1623865575.0,286047002.3,N
1623865575.9,286047002.3,N
1623865595.8,286047002.3,N
1623865615.6,286046999.9,N
1623865635.5,286047002.8,N
1623865655.3,286047000.3,N
1623865675.1,286047000.3,N
1623865695.9,286046999.7,N
1623865715.7,286047000.4,N
1623865735.5,286046999.8,N
1623865755.4,286047002.4,N
1623865775.2,286047000.6,N
1623865795.0,286047000.5,N
1623865796.0,286047000.5,N
1623865815.8,286047000.5,N
1623865835.6,286047000.4,N
1623865855.5,286047002.7,N
1623865875.3,286047000.1,N
1623865895.1,286047002.6,N
1623865915.9,286047002.2,N
1623865935.7,286047000.7,N
1623865955.6,286047000.4,N
1623865975.4,286047000.5,N
1623865995.2,286046998.5,N
1623866015.1,286046998.6,N
1623866016.0,286046998.6,N
1623866035.8,286046999.2,N
1623866055.6,286046999.0,N
1623866075.5,286046999.1,N
1623866095.3,286046998.2,N
1623866115.2,286047001.1,N
1623866135.9,286047001.2,N
1623866155.7,286046999.9,N
1623866175.6,286047002.5,N
1623866195.4,286047000.4,N
1623866215.2,286047000.4,N
1623866235.1,286047000.4,N
1623866236.0,286047000.4,N
1623866255.8,286047000.2,N
1623866275.7,286046999.9,N
1623866295.5,286047001.2,N
1623866315.3,286046998.2,N
1623866335.2,286047000.6,N
1623866355.0,286047002.2,N
1623866355.9,286047002.2,N
1623866375.7,286047002.3,N
1623866395.6,286047011.9,Y
